This is the latest recevied weather packets stored in our database for station/object KC4KQE. If no packets are shown the sender has not sent any weather packets the latest 10 day(s).
| Time | Temp. | Humidity | Pressure | Rain* | Wind** | Luminosity | Snow |
|---|---|---|---|---|---|---|---|
| 1777940056 | 24.44° C | 35% | 1011.7 hPa | 0 mm | - | 163 W/m² | - |
| 1777939756 | 24.44° C | 35% | 1011.7 hPa | 0 mm | - | 176 W/m² | - |
| 1777939456 | 25° C | 34% | 1011.8 hPa | 0 mm | - | 165 W/m² | - |
| 1777939156 | 25° C | 32% | 1011.7 hPa | 0 mm | - | 181 W/m² | - |
| 1777938857 | 25° C | 33% | 1011.6 hPa | 0 mm | - | 199 W/m² | - |
| 1777938556 | 25° C | 33% | 1011.6 hPa | 0 mm | - | 216 W/m² | - |
| 1777938256 | 25° C | 33% | 1011.5 hPa | 0 mm | - | 220 W/m² | - |
| 1777937956 | 25° C | 32% | 1011.5 hPa | 0 mm | - | 214 W/m² | - |
| 1777937656 | 25° C | 32% | 1011.4 hPa | 0 mm | - | 213 W/m² | - |
| 1777937356 | 25° C | 32% | 1011.4 hPa | 0 mm | - | 225 W/m² | - |
| 1777937056 | 25° C | 32% | 1011.5 hPa | 0 mm | - | 236 W/m² | - |
| 1777936758 | 25° C | 32% | 1011.5 hPa | 0 mm | - | 250 W/m² | - |
| 1777936456 | 25° C | 32% | 1011.5 hPa | 0 mm | - | 279 W/m² | - |
| 1777936156 | 25° C | 32% | 1011.7 hPa | 0 mm | - | 288 W/m² | - |
| 1777935856 | 25° C | 32% | 1011.7 hPa | 0 mm | - | 288 W/m² | - |
| 1777935556 | 25° C | 32% | 1011.7 hPa | 0 mm | - | 304 W/m² | - |
| 1777935257 | 25° C | 32% | 1011.8 hPa | 0 mm | - | 315 W/m² | - |
| 1777934956 | 25° C | 32% | 1011.8 hPa | 0 mm | - | 290 W/m² | - |
| 1777934656 | 25° C | 33% | 1011.8 hPa | 0 mm | - | 276 W/m² | - |
| 1777934357 | 25° C | 33% | 1011.8 hPa | 0 mm | - | 279 W/m² | - |
| 1777934056 | 25° C | 33% | 1011.8 hPa | 0 mm | - | 287 W/m² | - |
| 1777933756 | 25° C | 34% | 1011.8 hPa | 0 mm | - | 262 W/m² | - |
| 1777933456 | 25° C | 33% | 1011.7 hPa | 0 mm | - | 216 W/m² | - |
| 1777933157 | 25° C | 34% | 1011.8 hPa | 0 mm | - | 237 W/m² | - |
| 1777932856 | 25° C | 34% | 1011.9 hPa | 0 mm | - | 241 W/m² | - |
* Rain latest hour (hover to see other rain measurements)
** Current wind speed in m/s (hover to see current wind gust speed)